SHIJIAN-20 (SJ-20)

Last updated on Mon Sep 21 2026 00:03:01 GMT+0000 (Coordinated Universal Time)

1 44910U 19097A 26263.14276053 .00000145 00000+0 00000+0 0 9999 2 44910 5.1562 73.8415 0002984 170.0024 206.9817 1.00276741 24652
UTC large
Height (km)
Speed (km/s)
/
Latitude / Longitude
Inclination (degrees)
Orbital Period (minutes)
Azimuth
Elevation
Range (km)
Doppler Factor

Next 0 passes for location: London (51.5072 / 0.1276)

No passes found over London.
SHIJIAN-20 (SJ-20)